Weather History for Tekamah, NE

Change the Weather History Date:

Thursday, February 23, 2012

  Actual Average Record
Temperature  
Mean Temperature 37 °F -  
Max Temperature 44 °F 43 °F 70 °F (1982)
Min Temperature 30 °F 19 °F -11 °F (1989)
Degree Days  
Heating Degree Days 28    
Moisture  
Dew Point 34 °F    
Average Humidity 89    
Maximum Humidity 100    
Minimum Humidity 81    
Precipitation  
Precipitation 0.12 in - - ()
Sea Level Pressure  
Sea Level Pressure 29.50 in    
Wind  
Wind Speed 9 mph (NNW)    
Max Wind Speed 32 mph    
Max Gust Speed 40 mph    
Visibility 2 miles    
Events Fog , Rain , Snow    
Averages and records for this station are not official NWS values.
T = Trace of Precipitation, MM = Missing Value Source: NWS Daily Summary

Daily Weather History Graph

Daily Weather History Graph

Search for Another Location

Airport:

Trip Planner

Search our weather history database for the weather conditions in past years. The results will help you decide how hot, cold, wet, or windy it might be!

Date:

Astronomy

Feb. 23, 2012 Rise Set
Actual Time 7:09 AM CST 6:07 PM CST
Civil Twilight 6:41 AM CST 6:35 PM CST
Nautical Twilight 6:09 AM CST 7:07 PM CST
Astronomical Twilight 5:36 AM CST 7:40 PM CST
Moon 7:34 AM CST (2/23) 8:16 PM CST (2/23)
Length of Visible Light 11h 54m
Length of Day
10h 57m
Waxing Crescent, 3% of the Moon is Illuminated
Feb 23
Waxing Crescent
Feb 29
First Quarter
Mar 8
Full
Mar 14
Last Quarter
Mar 22
New

Hourly Weather History & Observations

Time (CST) Temp. Windchill Dew Point Humidity Pressure Visibility Wind Dir Wind Speed Gust Speed Precip Events Conditions
12:54 AM 37.0 °F - 34.0 °F 89% 29.36 in 10.0 mi Calm Calm - 0.00 in Rain Light Rain
1:54 AM 39.0 °F 32.8 °F 35.1 °F 86% 29.35 in 9.0 mi SSE 9.2 mph - 0.00 in Rain Light Rain
2:54 AM 39.0 °F - 37.0 °F 93% 29.34 in 8.0 mi Calm Calm - 0.01 in Rain Light Rain
3:54 AM 39.0 °F - 37.0 °F 93% 29.31 in 7.0 mi Calm Calm - 0.00 in   Overcast
4:54 AM 39.0 °F 32.8 °F 37.0 °F 93% 29.31 in 4.0 mi North 9.2 mph - 0.01 in Rain Light Rain
5:44 AM 37.4 °F 31.4 °F 37.4 °F 100% 29.31 in 2.5 mi North 8.1 mph - 0.00 in   Overcast
5:54 AM 37.9 °F 32.7 °F 37.0 °F 97% 29.32 in 2.5 mi NNW 6.9 mph - 0.00 in   Overcast
6:54 AM 37.9 °F 33.5 °F 37.0 °F 97% 29.33 in 2.5 mi NW 5.8 mph - N/A   Overcast
7:38 AM 37.4 °F 31.4 °F 35.6 °F 93% 29.33 in 3.0 mi NW 8.1 mph - 0.00 in Rain Light Rain
7:54 AM 37.9 °F 32.7 °F 36.0 °F 93% 29.36 in 4.0 mi NNW 6.9 mph - 0.00 in   Overcast
8:07 AM 37.4 °F 32.8 °F 37.4 °F 100% 29.36 in 2.5 mi NW 5.8 mph - N/A   Overcast
8:28 AM 39.2 °F 35.0 °F 37.4 °F 93% 29.36 in 1.8 mi NNW 5.8 mph - 0.00 in Rain Light Rain
8:38 AM 39.2 °F 35.0 °F 37.4 °F 93% 29.36 in 2.0 mi NNW 5.8 mph - 0.00 in Rain Light Rain
8:47 AM 39.2 °F 35.9 °F 37.4 °F 93% 29.36 in 1.8 mi North 4.6 mph - 0.00 in Rain Light Rain
8:54 AM 39.0 °F 36.8 °F 37.0 °F 93% 29.37 in 1.5 mi North 3.5 mph - 0.00 in Rain Light Rain
9:17 AM 39.2 °F 37.0 °F 37.4 °F 93% 29.35 in 2.0 mi ENE 3.5 mph - 0.00 in   Overcast
9:47 AM 39.2 °F - 37.4 °F 93% 29.38 in 3.0 mi Calm Calm - 0.00 in   Overcast
9:54 AM 39.9 °F 36.7 °F 37.9 °F 93% 29.40 in 2.5 mi West 4.6 mph - 0.00 in Rain Light Rain
10:05 AM 41.0 °F - 37.4 °F 87% 29.39 in 1.5 mi Calm Calm - 0.00 in Rain Light Rain
10:20 AM 39.2 °F 33.6 °F 37.4 °F 93% 29.39 in 1.0 mi West 8.1 mph - 0.01 in Rain Light Rain
10:29 AM 41.0 °F 37.1 °F 39.2 °F 93% 29.39 in 0.8 mi West 5.8 mph - 0.01 in Rain Light Rain
10:36 AM 41.0 °F 39.0 °F 39.2 °F 93% 29.39 in 1.2 mi West 3.5 mph - 0.02 in Rain Light Rain
10:54 AM 41.0 °F 39.0 °F 39.0 °F 93% 29.40 in 1.8 mi South 3.5 mph - 0.02 in   Overcast
11:02 AM 41.0 °F 39.0 °F 37.4 °F 87% 29.40 in 2.5 mi South 3.5 mph - N/A   Overcast
11:09 AM 42.8 °F - 39.2 °F 87% 29.40 in 4.0 mi Calm Calm - N/A   Overcast
11:25 AM 42.8 °F 41.1 °F 39.2 °F 87% 29.40 in 1.8 mi South 3.5 mph - 0.00 in Rain Light Rain
11:38 AM 42.8 °F 40.1 °F 39.2 °F 87% 29.40 in 0.8 mi SSE 4.6 mph - 0.00 in Rain Light Rain
11:54 AM 42.1 °F 40.2 °F 39.9 °F 92% 29.41 in 1.0 mi SE 3.5 mph - 0.01 in Rain Light Rain
12:05 PM 42.8 °F 41.1 °F 39.2 °F 87% 29.41 in 1.2 mi SE 3.5 mph - 0.00 in Rain Light Rain
12:14 PM 42.8 °F 40.1 °F 39.2 °F 87% 29.41 in 1.0 mi SE 4.6 mph - 0.00 in Rain Light Rain
12:24 PM 42.8 °F 40.1 °F 39.2 °F 87% 29.40 in 0.8 mi SSE 4.6 mph - 0.01 in Rain Light Rain
12:36 PM 42.8 °F 41.1 °F 39.2 °F 87% 29.40 in 1.0 mi SE 3.5 mph - 0.02 in Rain Light Rain
12:40 PM 42.8 °F - 39.2 °F 87% 29.40 in 1.5 mi Calm Calm - 0.02 in Rain Light Rain
12:48 PM 42.8 °F 40.1 °F 39.2 °F 87% 29.40 in 2.0 mi East 4.6 mph - 0.02 in Rain Light Rain
12:54 PM 42.1 °F 39.2 °F 39.9 °F 92% 29.41 in 2.0 mi ENE 4.6 mph - 0.02 in Rain Light Rain
12:59 PM 42.8 °F 41.1 °F 39.2 °F 87% 29.40 in 1.5 mi East 3.5 mph - 0.00 in Rain Light Rain
1:12 PM 42.8 °F 41.1 °F 39.2 °F 87% 29.40 in 2.0 mi East 3.5 mph - 0.00 in Rain Light Rain
1:34 PM 44.6 °F 43.1 °F 39.2 °F 81% 29.39 in 2.5 mi ESE 3.5 mph - 0.01 in Rain Light Rain
1:40 PM 42.8 °F - 39.2 °F 87% 29.40 in 1.8 mi Calm Calm - 0.01 in Rain Light Rain
1:54 PM 43.0 °F - 39.9 °F 89% 29.40 in 1.5 mi Calm Calm - 0.02 in Rain Light Rain
2:03 PM 44.6 °F - 39.2 °F 81% 29.40 in 2.5 mi Calm Calm - 0.00 in Rain Light Rain
2:15 PM 42.8 °F 35.4 °F 37.4 °F 81% 29.39 in 3.0 mi WNW 15.0 mph 23.0 mph 0.00 in Rain Light Rain
2:42 PM 39.2 °F 28.7 °F 35.6 °F 87% 29.42 in 10.0 mi NW 23.0 mph 31.1 mph 0.01 in   Overcast
2:54 PM 37.9 °F 27.6 °F 35.1 °F 89% 29.44 in 7.0 mi NW 20.7 mph 28.8 mph 0.01 in   Overcast
3:01 PM 37.4 °F 26.4 °F 33.8 °F 87% 29.44 in 4.0 mi NW 23.0 mph 28.8 mph N/A   Overcast
3:54 PM 36.0 °F 23.5 °F 32.0 °F 86% 29.50 in 3.0 mi NNW 27.6 mph 38.0 mph 0.00 in Snow Light Snow
4:04 PM 35.6 °F 22.3 °F 32.0 °F 87% 29.50 in 2.0 mi NNW 31.1 mph 40.3 mph 0.00 in Snow Light Snow
4:08 PM 35.6 °F 23.0 °F 32.0 °F 87% 29.51 in 1.8 mi NNW 27.6 mph 40.3 mph 0.00 in Snow Light Snow
4:17 PM 35.6 °F 23.4 °F 32.0 °F 87% 29.52 in 0.8 mi NNW 25.3 mph 38.0 mph 0.00 in Snow Light Snow
4:49 PM 33.8 °F 20.3 °F 30.2 °F 87% 29.55 in 0.5 mi NNW 28.8 mph 39.1 mph 0.00 in Fog , Snow Light Snow
4:54 PM 34.0 °F 19.9 °F 30.9 °F 89% 29.56 in 0.2 mi NNW 32.2 mph 38.0 mph 0.00 in Fog , Snow Snow
5:10 PM 33.8 °F 20.3 °F 30.2 °F 87% 29.56 in 0.2 mi NNW 28.8 mph 35.7 mph 0.01 in Fog , Snow Snow
5:54 PM 33.1 °F 19.8 °F 30.0 °F 89% 29.63 in 0.2 mi NNW 26.5 mph 34.5 mph 0.02 in Fog , Snow Snow
6:01 PM 33.8 °F 21.0 °F 30.2 °F 87% 29.63 in 0.2 mi NNW 25.3 mph 34.5 mph 0.00 in Fog , Snow Snow
6:10 PM 33.8 °F 21.6 °F 30.2 °F 87% 29.64 in 0.8 mi NNW 23.0 mph 34.5 mph 0.00 in Snow Light Snow
6:19 PM 33.8 °F 21.0 °F 28.4 °F 81% 29.64 in 1.5 mi NNW 25.3 mph 32.2 mph 0.00 in Snow Light Snow
6:28 PM 33.8 °F 21.3 °F 28.4 °F 81% 29.65 in 2.0 mi NNW 24.2 mph 32.2 mph 0.00 in Snow Light Snow
6:45 PM 33.8 °F 21.9 °F 28.4 °F 81% 29.67 in 2.0 mi NNW 21.9 mph - 0.00 in Snow Light Snow
6:54 PM 33.1 °F 20.9 °F 28.9 °F 85% 29.69 in 1.5 mi NNW 21.9 mph 28.8 mph 0.00 in Snow Light Snow
7:45 PM 33.8 °F 22.2 °F 28.4 °F 81% 29.70 in 2.0 mi NNW 20.7 mph 28.8 mph 0.00 in Snow Light Snow
7:54 PM 33.1 °F 21.2 °F 28.9 °F 85% 29.72 in 2.0 mi NNW 20.7 mph - 0.00 in Snow Light Snow
8:05 PM 33.8 °F 22.5 °F 28.4 °F 81% 29.71 in 3.0 mi NNW 19.6 mph - 0.00 in   Overcast
8:54 PM 32.0 °F 20.1 °F 28.9 °F 88% 29.75 in 3.0 mi NNW 19.6 mph - 0.00 in   Overcast
9:12 PM 32.0 °F 18.9 °F 28.4 °F 87% 29.75 in 2.0 mi NNW 24.2 mph - 0.00 in Snow Light Snow
9:18 PM 32.0 °F 19.5 °F 28.4 °F 87% 29.76 in 1.8 mi NNW 21.9 mph - 0.00 in Snow Light Snow
9:33 PM 32.0 °F 19.2 °F 28.4 °F 87% 29.77 in 1.2 mi NNW 23.0 mph - 0.00 in Snow Light Snow
9:47 PM 32.0 °F 19.8 °F 28.4 °F 87% 29.78 in 1.5 mi NNW 20.7 mph 29.9 mph 0.00 in Snow Light Snow
9:54 PM 32.0 °F 19.5 °F 28.0 °F 85% 29.79 in 1.5 mi NNW 21.9 mph - 0.00 in Snow Light Snow
10:06 PM 30.2 °F 17.8 °F 28.4 °F 93% 29.78 in 1.8 mi NNW 19.6 mph - 0.00 in Snow Light Snow
10:26 PM 30.2 °F 18.5 °F 28.4 °F 93% 29.79 in 1.2 mi NW 17.3 mph - 0.00 in Snow Light Snow
10:54 PM 30.9 °F 19.8 °F 28.0 °F 89% 29.80 in 2.5 mi NW 16.1 mph - 0.00 in Snow Light Snow
11:00 PM 30.2 °F 19.3 °F 28.4 °F 93% 29.79 in 3.0 mi NW 15.0 mph - N/A   Overcast
11:15 PM 30.2 °F 21.3 °F 28.4 °F 93% 29.79 in 2.5 mi NW 10.4 mph - N/A   Overcast
11:41 PM 32.0 °F 22.5 °F 28.4 °F 87% 29.80 in 3.0 mi NW 12.7 mph - 0.00 in   Overcast
11:54 PM 32.0 °F 21.6 °F 28.9 °F 88% 29.81 in 2.5 mi NW 15.0 mph - 0.00 in   Overcast